Regional Weather Roundup
Issued by NWS

Home | Current Version | Previous Version | Text Only | Print | Product List | Glossary On
Versions: 1 2 3 4 5 6 7 8 9 10 11 12 13 14 15 16 17 18 19 20 21 22 23 24 25 26 27 28 29 30 31 32 33 34 35 36 37 38 39 40 41 42 43 44 45 46 47 48 49 50
000
ASUS43 KLSX 180557
RWRMO

WEATHER SUMMARY FOR MISSOURI
NATIONAL WEATHER SERVICE SPRINGFIELD MO
100 AM CDT WED OCT 18 2017

NOTE: "FAIR" INDICATES FEW OR NO CLOUDS BELOW 12,000 FEET WITH NO
       SIGNIFICANT WEATHER AND/OR OBSTRUCTIONS TO VISIBILITY.
       CURRENT SKY AND/OR WEATHER CONDITIONS ARE NOT AVAILABLE FOR
       CHILLICOTHE AND FARMINGTON.

MOZ001>031-035>038-043-044-053-054-180700-
...NORTHERN AND WESTERN MISSOURI...

CITY           SKY/WX    TMP DP  RH WIND       PRES   REMARKS
KANSAS CTY INT CLEAR     56  46  69 S12       30.08F
6HR MIN TEMP:  53; 6HR MAX TEMP:  59;

LEE`S SUMMIT   CLEAR     56  47  71 S12       30.11S
6HR MIN TEMP:  56; 6HR MAX TEMP:  64;

ST JOSEPH      CLEAR     57  48  72 S9        30.06F
6HR MIN TEMP:  56; 6HR MAX TEMP:  65;

CHILLICOTHE      N/A     50  48  93 S3        30.10F
6HR MIN TEMP:  50; 6HR MAX TEMP:  64;


$$
MOZ066>068-077>081-088>096-101>105-180700-
...SOUTHWEST MISSOURI...

CITY           SKY/WX    TMP DP  RH WIND       PRES   REMARKS
SPRINGFIELD    CLEAR     50  41  71 S10       30.16F
6HR MIN TEMP:  50; 6HR MAX TEMP:  62;

JOPLIN         CLEAR     50  44  80 S8        30.15F
6HR MIN TEMP:  50; 6HR MAX TEMP:  61;


$$
MOZ032>034-039>042-045>050-055>058-069>072-180700-
...CENTRAL MISSOURI...

CITY           SKY/WX    TMP DP  RH WIND       PRES   REMARKS
COLUMBIA       NOT AVBL
JEFFERSON CITY CLEAR     50  42  74 SE6       30.16S
6HR MIN TEMP:  49; 6HR MAX TEMP:  63;

ROLLA          CLEAR     52  41  66 S13       30.18S
6HR MIN TEMP:  50; 6HR MAX TEMP:  56;

SEDALIA        CLEAR     54  44  69 S7        30.14S
6HR MIN TEMP:  53; 6HR MAX TEMP:  59;

WARRENSBURG    CLEAR     50  45  81 S7        30.12S

$$
MOZ051-052-059>065-180700-
...EAST CENTRAL MISSOURI...

CITY           SKY/WX    TMP DP  RH WIND       PRES   REMARKS
ST LOUIS INTL  CLEAR     55  41  59 S8        30.19F
6HR MIN TEMP:  55; 6HR MAX TEMP:  64;


$$
MOZ072>076-082>087-097>100-106>115-180700-
...SOUTH CENTRAL AND SOUTHEAST MISSOURI...

CITY           SKY/WX    TMP DP  RH WIND       PRES   REMARKS
CAPE GIRARDEAU CLEAR     43  40  89 CALM      30.23S
6HR MIN TEMP:  42; 6HR MAX TEMP:  57;

POPLAR BLUFF   CLEAR     41  40  96 CALM      30.22F
6HR MIN TEMP:  41; 6HR MAX TEMP:  56;

WEST PLAINS    CLEAR     47  39  74 CALM      30.22S
6HR MIN TEMP:  47; 6HR MAX TEMP:  58;


$$



USA.gov is the U.S. government's official web portal to all federal, state and local government web resources and services.